Location: Dover
(39.1580°N, 75.5250°W)
Time: 10:01:54
(UTC-05:00)

Daily predictions for brighter satellites

Satellite Brightness Start Highest point End
(mag) Time Altitude Azimuth Time Altitude Azimuth Time Altitude Azimuth
Atlas Centaur 2 4.2 17:36:21 10° WSW 17:40:21 20° SSW 17:43:45 10° SSE
Cosmos 2219 Rocket 2.2 17:34:45 10° SSW 17:40:21 70° ESE 17:45:57 10° NNE
Cosmos 371 Rocket 3.4 17:36:21 10° S 17:41:04 59° ESE 17:45:48 10° NNE
YAOGAN 1 2.6 17:39:17 10° SSE 17:43:37 88° WSW 17:47:58 10° NNW
COSMO-SKYMED 1 3.0 17:39:54 10° NNE 17:44:01 41° E 17:48:06 10° S
CZ-4 R/B 4.4 17:41:17 10° SSE 17:45:24 74° ENE 17:49:33 10° N
SPOT 3 Rocket 3.7 17:42:01 10° SSE 17:47:10 82° WSW 17:52:21 10° NNW
Cosmos 2058 3.9 17:43:45 10° SSE 17:47:12 26° E 17:50:40 10° NNE
Thor Agena Rocket 3.7 17:42:36 10° NNE 17:47:52 85° WNW 17:53:02 10° SSW
Cosmos 1125 Rocket 3.8 17:43:17 10° N 17:48:17 45° ENE 17:53:14 10° SE
Cosmos 2278 Rocket 2.6 17:43:19 10° N 17:48:40 40° ENE 17:53:58 10° SE
SMAP 3.6 17:46:30 10° S 17:51:06 64° W 17:55:44 10° NNW
BREEZE-M DEB (TANK) 3.9 17:47:21 10° WNW 17:51:33 56° SW 17:57:42 10° SE
Cosmos 2279 Rocket 4.5 17:46:32 10° N 17:52:16 38° ENE 17:57:58 10° SE
USA 116 4.5 17:49:49 10° N 17:52:51 41° WNW 17:55:47 10° SW
Cosmos 2228 Rocket 3.3 17:49:06 10° N 17:53:32 76° W 17:57:57 10° S
Cosmos 1626 3.8 17:56:46 10° ESE 17:58:48 14° E 17:59:17 14° ENE
Cosmos 1844 3.8 17:54:37 10° NNW 18:00:25 87° ENE 18:06:13 10° SSE
Cosmos 841 Rocket 4.2 17:55:20 10° SSW 18:00:30 58° WNW 18:05:43 10° N
Cosmos 44 Rocket 3.5 17:55:52 10° SW 18:01:01 79° WNW 18:06:05 10° NNE
Cosmos 1340 Rocket 3.6 17:57:58 10° SSE 18:01:24 29° E 18:04:49 10° NNE
Cosmos 1674 4.3 17:57:57 10° SSW 18:01:29 37° WNW 18:05:05 10° N
CENTAUR R/B 3.5 17:57:33 10° WSW 18:03:22 44° NW 18:09:54 10° NNE
IDEFIX/ARIANE 42P 4.0 18:00:33 10° S 18:05:27 42° W 18:10:25 10° NNW
SL-14 R/B 3.2 18:03:50 10° S 18:07:41 65° E 18:11:38 10° NNE
Lacrosse 5 4.1 18:07:31 10° NW 18:09:46 13° NNW 18:12:01 10° N
COSMOS 2428 4.1 18:06:39 10° SW 18:11:54 36° WNW 18:17:09 10° N
Cosmos 1484 Rocket 3.0 18:08:24 10° S 18:12:17 76° WSW 18:16:17 10° NNW
Cosmos 2237 Rocket 2.1 18:06:51 10° SSW 18:12:27 77° ESE 18:18:06 10° NNE
CZ-2C R/B 4.4 18:10:10 10° SSW 18:14:39 33° W 18:19:04 10° NNW
Cosmos 1726 2.1 18:12:50 10° N 18:16:38 88° E 18:20:24 10° S
Milstar 3 4.2 18:11:59 10° WSW 18:17:48 30° S 18:23:52 10° SE
SL-16 R/B 2.8 18:12:52 10° SSE 18:17:56 35° ESE 18:21:40 17° NE
Cosmos 2151 2.9 18:13:56 10° S 18:18:08 89° E 18:22:22 10° N
Cosmos 1300 2.7 18:16:33 10° N 18:20:24 85° W 18:24:12 10° S
Cosmos 304 Rocket 4.0 18:20:10 10° S 18:24:45 46° ESE 18:28:10 17° NE
Cosmos 2297 4.1 18:23:29 10° N 18:28:52 41° ENE 18:34:13 10° SE
Aureole 2 Rocket 2.5 18:26:55 10° SSW 18:30:31 78° ESE 18:33:24 18° NNE
SKYMED 2 4.3 18:27:52 10° N 18:32:07 55° WNW 18:36:21 10° SSW
Cosmos 1151 Rocket 3.7 18:29:19 10° NNW 18:33:30 56° W 18:37:41 10° S
Cosmos 1805 Rocket 3.6 18:29:34 10° S 18:33:56 58° E 18:38:20 10° NNE
BREEZE M DEB (TANK) 2.3 18:35:16 10° NW 18:37:01 31° N 18:37:01 31° N
Abrixas 2.3 18:36:32 10° WSW 18:39:28 78° NNW 18:39:46 66° NNE
Lacrosse 5 rocket 1.3 18:35:44 10° NNW 18:39:28 50° NE 18:40:19 42° E
Meteor 1-28 Rocket 4.0 18:41:18 10° N 18:44:54 50° WNW 18:48:30 10° SSW
Cosmos 773 Rocket 4.4 18:48:43 10° SSE 18:53:18 38° ESE 18:53:18 38° ESE
Cosmos 372 Rocket 4.4 18:50:33 10° NNW 18:55:34 62° WSW 19:00:36 10° S
Sich 1 3.0 18:51:25 10° S 18:55:47 65° E 18:57:08 42° NNE
Cosmos 1633 Rocket 2.9 18:55:58 10° S 19:00:18 63° E 19:00:37 61° ENE
FengYun 1-2 T 4.1 18:55:51 10° SSE 19:01:21 66° ENE 19:06:50 10° N
FENGYUN 3A 3.5 18:59:47 10° SSE 19:05:04 66° ENE 19:10:25 10° N
USA 215 3.3 19:01:55 15° SE 19:07:27 82° SW 19:14:02 10° NW
SJ-6B 3.5 19:03:29 10° S 19:07:28 57° W 19:11:32 10° NNW
ALOS 2.1 19:03:27 10° SSE 19:08:06 73° ENE 19:12:46 10° N
OTV 4 2.7 19:07:50 10° WSW 19:09:45 22° SW 19:09:45 22° SW
Cosmos 2333 Rocket 4.1 19:10:33 10° WSW 19:15:13 26° NW 19:19:56 10° N
Resurs 01 Rocket 2.1 19:17:34 50° N 19:17:34 50° N 19:20:53 10° NNW
Cosmos 1461 3.1 19:14:11 10° SW 19:18:18 65° WNW 19:18:18 65° WNW
Cosmos 1707 Rocket 4.3 19:19:22 10° NNW 19:23:34 51° W 19:27:45 10° S
Cosmos 2278 Rocket 4.2 19:27:50 10° NW 19:32:30 27° WSW 19:37:10 10° SSW
Cosmos 1626 3.9 19:30:30 10° SW 19:33:51 31° WNW 19:34:02 31° WNW
Spot 2 Rocket 3.8 19:31:37 10° S 19:36:37 65° WSW 19:41:38 10° NNW
USA 229 DEB 3.5 19:42:43 10° SSW 19:49:29 87° SSE 19:49:29 87° SSE
USA 229 3.5 19:42:49 10° SSW 19:49:32 86° SSE 19:49:32 86° SSE
Aureole 1 Rocket 4.3 19:56:38 10° SW 20:01:10 54° W 20:01:10 54° W
SL-16 R/B 3.7 19:57:01 10° WSW 20:02:01 32° WNW 20:03:37 27° NNW
